Regional Weather Roundup
Issued by NWS

Home | Current Version | Previous Version | Text Only | Print | Product List | Glossary Off
Versions: 1 2 3 4 5 6 7 8 9 10 11 12 13 14 15 16 17 18 19 20 21 22 23 24 25 26 27 28 29 30 31 32 33 34 35 36 37 38 39 40 41 42 43 44 45 46 47 48 49 50

000
ASUS43 KTOP 132159
RWRKS

WEATHER ROUNDUP FOR KANSAS
NATIONAL WEATHER SERVICE GOODLAND KS
400 PM CST WED DEC 13 2017

NOTE:  "FAIR" INDICATES FEW OR NO CLOUDS BELOW 12,000 FEET WITH NO
SIGNIFICANT WEATHER AND/OR OBSTRUCTIONS TO VISIBILITY.

KSZ001>006-013>018-027>032-041>047-132300-
NORTHWEST KANSAS

CITY           SKY/WX    TMP DP  RH WIND       PRES   REMARKS
GOODLAND       SUNNY     54  14  20 N21G30    29.96S
HAYS           SUNNY     57  15  19 N23       29.92R
HILL CITY      SUNNY     56  16  20 N15       29.94R
RUSSELL        SUNNY     57  22  25 NW20      29.90R
$$

KSZ061>065-074>080-084>089-132300-
SOUTHWEST KANSAS

CITY           SKY/WX    TMP DP  RH WIND       PRES   REMARKS
DODGE CITY     SUNNY     59  18  20 N17       29.94F
GARDEN CITY    SUNNY     58  15  18 N14G22    29.96S
GREAT BEND     SUNNY     59  22  24 N21G29    29.89F
LIBERAL        SUNNY     58  17  20 N13       29.98S
$$

KSZ066>073-081>083-090>101-132300-
SOUTHEAST KANSAS

CITY           SKY/WX    TMP DP  RH WIND       PRES   REMARKS
CHANUTE        CLEAR     62  25  24 NW14G28   29.83R
COFFEYVILLE    SUNNY     63  26  24 NW17      29.83S
HUTCHINSON     SUNNY     61  23  23 NW14G26   29.87S
MEDICINE LODGE   N/A     63  20  19 N14       29.89S
NEWTON         SUNNY     59  23  25 N17       29.87R
PARSONS        CLEAR     63  26  24 NW13      29.83S
WICHITA INTL   MOSUNNY   63  22  20 N16       29.87R
WICHITA JABRA  SUNNY     60  22  23 NW16G24   29.86S
WINFIELD       SUNNY     63  22  20 N15       29.88R
$$

KSZ007>012-019>026-033>040-048>060-102>105-132300-
NORTHEAST KANSAS

CITY           SKY/WX    TMP DP  RH WIND       PRES   REMARKS
CONCORDIA      CLEAR     55  23  28 NW21G30   29.87R
EMPORIA        CLEAR     58  24  27 NW15G25   29.84R
LAWRENCE       CLEAR     58  26  29 NW18      29.80R
MANHATTAN      CLEAR     58  25  28 N10G18    29.85R
OLATHE IND     CLEAR     56  26  31 NW18G25   29.80R
OLATHE EXE     CLEAR     56  26  31 NW13G24   29.78R
SALINA         SUNNY     60  25  26 N16       29.88S
TOPEKA BILLARD CLEAR     57  27  31 NW17G25   29.82R
TOPEKA FORBES  CLEAR     58  27  30 N18G31    29.81R
$$




USA.gov is the U.S. government's official web portal to all federal, state and local government web resources and services.